Погода в Перасте

Черногория     42°29′11″N   18°42′00″E
темп.,
°C
ветер,
м/с
пор.,
м/с
влажн.,
%
обл.,
%
осадки,
мм/ч
давл.,
гПа
погр.,
м
11 мая, вт
вт1123:00+13ссв22720 0.0 101822
02:00+12ссв22720 0.0 101720
05:00+12ссв22700 0.0 101622
08:00+17всв115737 0.0 1016209
11:00+21ююз224523 0.0 1015918
14:00+21юз33485 0.0 10141085
17:00+20ююз23510 0.0 1012762
20:00+13св11830 0.0 101313
12 мая, ср
ср1223:00+12в117946 0.0 101311
02:00+13в116852 0.0 101216
05:00+12всв1170100 0.0 101014
08:00+13ю1278100 0.2 1010186
11:00+13юв238787 1.0 1010443
14:00+16ю34744 2.9 1009995
17:00+16юз33650 0.3 10091026
20:00+10с11910 0.3 100910
13 мая, чт
чт1323:00+9ссв11880 0.1 101011
02:00+9св11875 0.1 101013
05:00+10в118470 0.0 100930
08:00+11ю2483100 0.4 1009453
11:00+14ю5664100 0.4 10091313
14:00+12ююз358170 1.7 1009902
17:00+12ююз358180 1.1 1009898
20:00+10ю249361 2.7 1010126
14 мая, пт
пт1423:00+9вюв129899 2.7 1010109
02:00+9в129859 4.3 101063
05:00+8всв229791 0.4 101146
08:00+10ю349258 1.8 1012463
11:00+13ююз46725 1.3 10131135
14:00+15ююз48480 1.3 10131643
17:00+15ю3851100 0.0 10131670
20:00+10вюв1188100 0.0 101414
15 мая, сб
сб1523:00+9в1185100 0.0 101420
02:00+10ююв2798100 2.7 1012403
05:00+10ююз26100100 8.7 1011489
08:00+10вюв1292100 13.8 1009267
11:00+9всв2396100 6.9 1010314
14:00+8всв2396100 17.6 1010306
17:00+10всв228576 1.1 1010355
20:00+8св119221 1.1 101012